{"data":{"norad_id":62041,"intl_designator":"2024-216K","name":"STARLINK-32456","alt_names":[],"object_type":"PAYLOAD","status":"ACTIVE","operator":null,"country":"US","launch_date":"2024-11-21","launch_site_code":"AFETR","launch_vehicle":null,"mission":null,"orbit_class":"UNKNOWN","rcs_meters":null,"size_class":null,"mass_kg":null,"dimensions":null,"purposes":["comms"],"wikipedia_slug":null,"has_3d_model":false,"image_url":null,"decayed_at":null,"tle_current":{"epoch":"2026-09-21T14:14:35.114208Z","epoch_age_seconds":91084,"freshness":"FRESH","line1":"1 62041U 24216K   26264.59346197  .00008320  00000+0  31153-3 0  9990","line2":"2 62041  42.9979 230.2143 0001308 261.2499  98.8205 15.27578183103839","mean_motion":15.27578183,"eccentricity":0.0001308,"inclination_deg":42.9979,"raan_deg":230.2143,"arg_perigee_deg":261.2499,"mean_anomaly_deg":98.8205,"bstar":0.00031153,"rev_number":10383,"period_min":94.266860840602,"perigee_km":482.1570929437,"apogee_km":483.95198064972,"semimajor_km":6861.1915367967,"source":"CELESTRAK","updated_at":"2026-09-22T09:00:49.488050Z"}}}